Buckeye, AZ

3:38 AM MST on October 16, 2019 (GMT -0700)
Buckeye Municipal

Weather History for KBXK - May, 2019

Change the Weather History Date:

Sunday, May 19, 2019

  Actual Average (WUND) Record (WUND)
Temperature  
Mean Temperature 73 °F -  
Max Temperature 80 °F - - (-1)
Min Temperature 66 °F - - (-1)
Cooling Degree Days 8    
Growing Degree Days 23 (Base 50)    
Moisture  
Dew Point 34 °F    
Average Humidity 26    
Maximum Humidity 37    
Minimum Humidity 16    
Precipitation  
Precipitation 0.00 in - - ()
Sea Level Pressure  
Sea Level Pressure 29.78 in    
Wind  
Wind Speed 7 mph (SW)    
Max Wind Speed 23 mph    
Max Gust Speed 33 mph    
Visibility 10 miles    
Events      
Averages and records for this station are not official NWS values.
T = Trace of Precipitation, MM = Missing Value Source: NWS Daily Summary

Daily Weather History Graph

Daily Weather History Graph

Search for Another Location

Airport or City:

Astronomy

May. 19, 2019 Rise Set
Actual Time 5:27 AM MST 7:26 PM MST
Civil Twilight 5:00 AM MST 7:54 PM MST
Nautical Twilight 4:26 AM MST 8:28 PM MST
Astronomical Twilight 3:50 AM MST 9:04 PM MST
Moon 8:31 PM MST (5/19) 6:14 AM MST (5/19)
Length of Visible Light 14h 54m
Length of Day
13h 58m
Full, 99% of the Moon is Illuminated
May 19
Full
May 26
Last Quarter
Jun 3
New
Jun 9
First Quarter
Jun 17
Full

Hourly Weather History & Observations

Time (MST) Temp. Dew Point Humidity Pressure Visibility Wind Dir Wind Speed Gust Speed Precip Events Conditions
12:15 AM 68.0 °F 32.0 °F 26% 29.81 in 10.0 mi SW 9.2 mph - N/A   Clear
12:35 AM 68.0 °F 32.0 °F 26% 29.81 in 10.0 mi SW 8.1 mph - N/A   Clear
12:55 AM 66.2 °F 33.8 °F 30% 29.80 in 10.0 mi Calm Calm - N/A   Scattered Clouds
1:15 AM 68.0 °F 32.0 °F 26% 29.79 in 10.0 mi Calm Calm - N/A   Mostly Cloudy
1:35 AM 68.0 °F 32.0 °F 26% 29.80 in 10.0 mi Calm Calm - N/A   Mostly Cloudy
1:55 AM 66.2 °F 32.0 °F 28% 29.80 in 10.0 mi WSW 4.6 mph - N/A   Overcast
2:15 AM 66.2 °F 33.8 °F 30% 29.80 in 10.0 mi SSW 4.6 mph - N/A   Overcast
2:35 AM 68.0 °F 32.0 °F 26% 29.79 in 10.0 mi SW 6.9 mph - N/A   Unknown
2:55 AM 66.2 °F 32.0 °F 28% 29.79 in 10.0 mi WSW 4.6 mph - N/A   Unknown
3:15 AM 66.2 °F 32.0 °F 28% 29.80 in 10.0 mi West 3.5 mph - N/A   Overcast
3:35 AM 66.2 °F 30.2 °F 26% 29.80 in 10.0 mi West 3.5 mph - N/A   Overcast
3:55 AM 68.0 °F 30.2 °F 24% 29.79 in 10.0 mi Calm Calm - N/A   Overcast
4:15 AM 68.0 °F 30.2 °F 24% 29.79 in 10.0 mi Calm Calm - N/A   Overcast
4:35 AM 66.2 °F 32.0 °F 28% 29.80 in 10.0 mi SW 3.5 mph - N/A   Unknown
4:55 AM 66.2 °F 32.0 °F 28% 29.79 in 10.0 mi SW 5.8 mph - N/A   Unknown
5:15 AM 66.2 °F 32.0 °F 28% 29.79 in 10.0 mi SW 4.6 mph - N/A   Overcast
5:35 AM 66.2 °F 32.0 °F 28% 29.80 in 10.0 mi Calm Calm - N/A   Overcast
5:55 AM 66.2 °F 32.0 °F 28% 29.80 in 9.0 mi Calm Calm - N/A   Scattered Clouds
6:15 AM 66.2 °F 32.0 °F 28% 29.80 in 9.0 mi Calm Calm - N/A   Partly Cloudy
6:35 AM 66.2 °F 32.0 °F 28% 29.81 in 8.0 mi Calm Calm - N/A   Mostly Cloudy
6:55 AM 66.2 °F 32.0 °F 28% 29.81 in 8.0 mi Calm Calm - N/A   Mostly Cloudy
7:15 AM 66.2 °F 32.0 °F 28% 29.82 in 8.0 mi Calm Calm - N/A   Partly Cloudy
7:35 AM 68.0 °F 32.0 °F 26% 29.83 in 9.0 mi Calm Calm - N/A   Clear
7:55 AM 69.8 °F 32.0 °F 25% 29.83 in 9.0 mi Calm Calm - N/A   Clear
8:15 AM 69.8 °F 32.0 °F 25% 29.83 in 8.0 mi SE 4.6 mph - N/A   Clear
8:35 AM 69.8 °F 35.6 °F 28% 29.82 in 8.0 mi ESE 6.9 mph - N/A   Clear
8:55 AM 69.8 °F 39.2 °F 33% 29.82 in 9.0 mi SE 5.8 mph - N/A   Clear
9:15 AM 71.6 °F 37.4 °F 29% 29.82 in 8.0 mi SE 5.8 mph - N/A   Clear
9:35 AM 71.6 °F 32.0 °F 23% 29.82 in 5.0 mi South 12.7 mph - N/A   Clear
9:55 AM 73.4 °F 32.0 °F 22% 29.82 in 9.0 mi South 10.4 mph - N/A   Clear
10:15 AM 73.4 °F 32.0 °F 22% 29.82 in 7.0 mi South 8.1 mph - N/A   Clear
10:35 AM 75.2 °F 32.0 °F 21% 29.82 in 9.0 mi SSW 12.7 mph 16.1 mph N/A   Clear
10:55 AM 75.2 °F 32.0 °F 21% 29.82 in 10.0 mi SSW 11.5 mph - N/A   Clear
11:15 AM 75.2 °F 32.0 °F 21% 29.82 in 9.0 mi SW 11.5 mph - N/A   Partly Cloudy
11:35 AM 77.0 °F 30.2 °F 18% 29.82 in 10.0 mi WSW 10.4 mph - N/A   Clear
11:55 AM 77.0 °F 28.4 °F 17% 29.82 in 10.0 mi SW 11.5 mph 18.4 mph N/A   Clear
12:15 PM 77.0 °F 28.4 °F 17% 29.81 in 10.0 mi WSW 11.5 mph 20.7 mph N/A   Clear
12:35 PM 77.0 °F 28.4 °F 17% 29.81 in 10.0 mi SW 13.8 mph - N/A   Partly Cloudy
12:55 PM 77.0 °F 28.4 °F 17% 29.80 in 10.0 mi WSW 12.7 mph 18.4 mph N/A   Scattered Clouds
1:15 PM 77.0 °F 28.4 °F 17% 29.80 in 10.0 mi SSW 16.1 mph 20.7 mph N/A   Mostly Cloudy
1:35 PM 78.8 °F 28.4 °F 16% 29.79 in 10.0 mi SW 13.8 mph - N/A   Scattered Clouds
1:55 PM 78.8 °F 30.2 °F 17% 29.79 in 10.0 mi WSW 16.1 mph 20.7 mph N/A   Scattered Clouds
2:15 PM 78.8 °F 30.2 °F 17% 29.77 in 10.0 mi SW 15.0 mph 25.3 mph N/A   Scattered Clouds
2:35 PM 78.8 °F 32.0 °F 18% 29.76 in 10.0 mi WSW 13.8 mph 21.9 mph N/A   Mostly Cloudy
2:55 PM 80.6 °F 32.0 °F 17% 29.75 in 9.0 mi WSW 12.7 mph 23.0 mph N/A   Mostly Cloudy
3:15 PM 80.6 °F 33.8 °F 18% 29.74 in 10.0 mi WSW 12.7 mph 19.6 mph N/A   Scattered Clouds
3:35 PM 80.6 °F 35.6 °F 20% 29.73 in 10.0 mi SW 15.0 mph 24.2 mph N/A   Partly Cloudy
3:55 PM 80.6 °F 35.6 °F 20% 29.73 in 9.0 mi WSW 20.7 mph - N/A   Clear
4:15 PM 78.8 °F 35.6 °F 21% 29.72 in 10.0 mi WSW 15.0 mph 25.3 mph N/A   Clear
4:35 PM 78.8 °F 35.6 °F 21% 29.72 in 10.0 mi SW 13.8 mph 21.9 mph N/A   Clear
4:55 PM 78.8 °F 35.6 °F 21% 29.72 in 10.0 mi West 23.0 mph 33.4 mph N/A   Clear
5:15 PM 75.2 °F 42.8 °F 31% 29.72 in 10.0 mi WNW 16.1 mph 24.2 mph N/A   Clear
5:35 PM 75.2 °F 41.0 °F 29% 29.71 in 10.0 mi WNW 15.0 mph 20.7 mph N/A   Clear
5:55 PM 75.2 °F 41.0 °F 29% 29.71 in 10.0 mi WNW 11.5 mph - N/A   Clear
6:15 PM 75.2 °F 41.0 °F 29% 29.71 in 10.0 mi WNW 10.4 mph - N/A   Clear
6:35 PM 75.2 °F 39.2 °F 27% 29.71 in 10.0 mi WNW 11.5 mph 16.1 mph N/A   Partly Cloudy
6:55 PM 75.2 °F 39.2 °F 27% 29.71 in 10.0 mi West 15.0 mph - N/A   Partly Cloudy
7:15 PM 73.4 °F 39.2 °F 29% 29.71 in 10.0 mi West 11.5 mph 17.3 mph N/A   Partly Cloudy
7:35 PM 73.4 °F 39.2 °F 29% 29.71 in 10.0 mi West 13.8 mph - N/A   Clear
7:55 PM 73.4 °F 39.2 °F 29% 29.72 in 10.0 mi West 12.7 mph 23.0 mph N/A   Scattered Clouds
8:15 PM 71.6 °F 41.0 °F 33% 29.72 in 10.0 mi West 12.7 mph 18.4 mph N/A   Overcast
8:35 PM 71.6 °F 41.0 °F 33% 29.73 in 10.0 mi West 12.7 mph - N/A   Overcast
8:55 PM 71.6 °F 41.0 °F 33% 29.74 in 10.0 mi West 13.8 mph 20.7 mph N/A   Overcast
9:15 PM 71.6 °F 39.2 °F 31% 29.75 in 10.0 mi WSW 12.7 mph - N/A   Overcast
9:35 PM 71.6 °F 39.2 °F 31% 29.75 in 10.0 mi WSW 11.5 mph 19.6 mph N/A   Overcast
9:55 PM 69.8 °F 37.4 °F 31% 29.75 in 10.0 mi WSW 11.5 mph - N/A   Unknown
10:15 PM 69.8 °F 35.6 °F 28% 29.75 in 10.0 mi WSW 15.0 mph 21.9 mph N/A   Overcast
10:35 PM 68.0 °F 37.4 °F 33% 29.74 in 10.0 mi SW 10.4 mph - N/A   Overcast
10:55 PM 68.0 °F 37.4 °F 33% 29.74 in 10.0 mi SSW 6.9 mph - N/A   Overcast
11:15 PM 68.0 °F 39.2 °F 35% 29.74 in 10.0 mi SW 6.9 mph - N/A   Unknown
11:35 PM 66.2 °F 39.2 °F 37% 29.75 in 10.0 mi SW 9.2 mph - N/A   Unknown
11:55 PM 66.2 °F 39.2 °F 37% 29.75 in 10.0 mi SW 9.2 mph - N/A   Overcast